Meteo Giornale » Osservazioni meteo Francia » Lione-Bron

ore: 10:30 - Osservazioni Meteo Lione-Bron
Lat. 45° 43' N Lon. 4° 57' E Alt. 200 metri s.l.m.

sereno Europe/Paris

19 °C

Sereno

Temp. 24 Ore

12 °C

22 °C

Nord

18.5 Km/h

Dew point 12 °C

Umidità 63 %

Visibilità  10 Km

Il sole sorge alle ore 05:48

Il sole tramonta alle ore 21:33

Data e Ora Cielo e Fenomeni T °C DP °C Um. % Pres. hPa Vis. km Vento km/h
Oggi h: 10:30 sereno Sereno 19 12 63 1022 10 N 18.5
Oggi h: 10:00 sereno Sereno 19 12 63 1022 10 N 16.7
Oggi h: 09:30 sereno Sereno 18 12 67 1022 10 N 16.7
Oggi h: 09:00 sereno Sereno 17 12 72 1022 10 N 14.8
Oggi h: 08:30 sereno Sereno 16 12 77 1022 10 N/NO 9.3
Oggi h: 08:00 sereno Sereno 14 12 87 1022 10 N/NO 7.4
Oggi h: 07:30 sereno Sereno 13 13 100 1022 10 N 0
Oggi h: 07:00 sereno Sereno 12 11 93 1022 10 N 0
Oggi h: 06:30 sereno Sereno 12 11 93 1022 10 N 0
Oggi h: 06:00 poco_nuvoloso Poco Nuvoloso 12 11 93 1022 9 N 0
Oggi h: 05:30 sereno Sereno 12 11 93 1022 10 N 0
Oggi h: 05:00 sereno Sereno 12 11 93 1022 10 N 0
Oggi h: 04:30 sereno Sereno 12 11 93 1022 10 N 0
Oggi h: 04:00 sereno Sereno 12 11 93 1022 10 N 1.8
Oggi h: 03:30 sereno Sereno 13 11 87 1022 10 N 3.7
Oggi h: 03:00 sereno Sereno 13 11 87 1022 10 N 0
Oggi h: 02:30 sereno Sereno 14 11 82 1022 10 N 0
Oggi h: 02:00 poco_nuvoloso Poco Nuvoloso 14 12 87 1021 10 NO 7.4
Oggi h: 01:30 nuvoloso Nuvoloso 15 12 82 1021 10 N 5.5
Oggi h: 01:00 molto_nuvoloso Molto Nuvoloso 15 13 87 1021 10 N 5.5
Oggi h: 00:30 molto_nuvoloso Molto Nuvoloso 15 14 93 1021 10 O/NO 7.4
Oggi h: 00:00 coperto Coperto 16 15 93 1021 10 N 0
Ieri h: 23:30 coperto Coperto 16 15 93 1021 10 N 3.7
Ieri h: 23:00 coperto Coperto 16 15 93 1021 10 N 5.5
Ieri h: 22:30 coperto_pioggia Pioggia Debole 17 14 82 1021 10 O/NO 7.4
Ieri h: 22:00 coperto Coperto 17 15 88 1020 10 N 1.8
Ieri h: 21:30 coperto_pioggia Pioggia Debole 17 14 82 1020 10 N 0
Ieri h: 21:00 coperto Coperto 17 14 82 1019 10 N 3.7
Ieri h: 20:30 molto_nuvoloso Molto Nuvoloso 18 14 77 1019 10 SE 7.4
Ieri h: 20:00 molto_nuvoloso Molto Nuvoloso 18 14 77 1019 10 N 5.5
Ieri h: 19:30 molto_nuvoloso Molto Nuvoloso 19 14 72 1019 10 N 1.8
Ieri h: 19:00 poco_nuvoloso Poco Nuvoloso 20 14 68 1019 10 N 5.5
Ieri h: 18:30 molto_nuvoloso Molto Nuvoloso 19 14 72 1019 10 N 1.8
Ieri h: 18:00 molto_nuvoloso Molto Nuvoloso 18 14 77 1019 10 N 0
Ieri h: 17:30 sereno Sereno 17 15 88 1018 10 E 13
Ieri h: 17:00 coperto_pioggia Pioggia Debole 15 14 93 1018 10 E 14.8
Ieri h: 16:30 coperto_pioggia Pioggia 15 14 93 1018 7 N 9.3
Ieri h: 16:00 coperto_pioggia Pioggia Temporale nelle Vicinanze 15 14 93 1019 6 NO 24
Ieri h: 15:30 nuvoloso_temporali Temporale con Pioggia 16 14 87 1018 10 N 5.5
Ieri h: 15:00 nuvoloso_temporali Temporale con Pioggia Foschia 16 14 87 1017 2 O 25.9
Ieri h: 14:30 coperto_temporali Temporale 21 14 64 1015 10 N 18.5
Ieri h: 14:00 coperto Coperto 22 14 60 1016 10 N 16.7
Ieri h: 13:30 molto_nuvoloso Molto Nuvoloso 22 14 60 1016 10 N/NE 16.7
Ieri h: 13:00 molto_nuvoloso Molto Nuvoloso 22 14 60 1016 10 N 14.8
Ieri h: 12:30 coperto Coperto 22 14 60 1017 10 N/NO 13
Ieri h: 12:00 molto_nuvoloso Molto Nuvoloso 21 15 68 1017 10 N 11.1